Beaumont / Port Arthur, TX

4:19 PM CST on December 15, 2017 (GMT -0600)
Beaumont Municipal

Weather History for KBMT - March, 2013

Change the Weather History Date:

Monday, March 4, 2013

  Actual Average (KBPT) Record (KBPT)
Temperature  
Mean Temperature 62 °F -  
Max Temperature 75 °F 69 °F 86 °F (1905)
Min Temperature 50 °F 48 °F 23 °F (2002)
Degree Days  
Heating Degree Days 2    
Growing Degree Days 12 (Base 50)    
Moisture  
Dew Point 51 °F    
Average Humidity 67    
Maximum Humidity 94    
Minimum Humidity 41    
Precipitation  
Precipitation 0.00 in - - ()
Sea Level Pressure  
Sea Level Pressure 29.91 in    
Wind  
Wind Speed 10 mph (South)    
Max Wind Speed 24 mph    
Max Gust Speed 36 mph    
Visibility 10 miles    
Events      
Averages and records for this station are not official NWS values.
T = Trace of Precipitation, MM = Missing Value Source: NWS Daily Summary

Daily Weather History Graph

Daily Weather History Graph

Search for Another Location

Airport or City:

Trip Planner

Search our weather history database for the weather conditions in past years. The results will help you decide how hot, cold, wet, or windy it might be!

Date:

Astronomy

Mar. 04, 2013 Rise Set
Actual Time 6:39 AM CST 6:18 PM CST
Civil Twilight 6:15 AM CST 6:42 PM CST
Nautical Twilight 5:47 AM CST 7:09 PM CST
Astronomical Twilight 5:19 AM CST 7:37 PM CST
Moon 12:32 AM CST (3/4) 11:18 AM CST (3/4)
Length of Visible Light 12h 26m
Length of Day
11h 38m
Waning Gibbous, 52% of the Moon is Illuminated
Mar 4
Waning Gibbous
Mar 4
Last Quarter
Mar 11
New
Mar 19
First Quarter
Mar 27
Full

Hourly Weather History & Observations

Time (CST) Temp. Dew Point Humidity Pressure Visibility Wind Dir Wind Speed Gust Speed Precip Events Conditions
12:15 AM 50.0 °F 42.8 °F 76% 30.04 in 10.0 mi SSE 4.6 mph - N/A   Clear
1:55 AM 50.0 °F 46.4 °F 87% 30.02 in 10.0 mi SSE 4.6 mph - N/A   Clear
2:35 AM 50.0 °F 46.4 °F 87% 30.01 in 10.0 mi South 3.5 mph - N/A   Clear
2:55 AM 50.0 °F 46.4 °F 87% 30.00 in 10.0 mi SSE 3.5 mph - N/A   Clear
3:15 AM 50.0 °F 46.4 °F 87% 30.00 in 10.0 mi SSE 4.6 mph - N/A   Clear
3:55 AM 50.0 °F 46.4 °F 87% 29.98 in 10.0 mi SSE 3.5 mph - N/A   Clear
4:15 AM 50.0 °F 46.4 °F 87% 29.97 in 10.0 mi SE 5.8 mph - N/A   Clear
4:35 AM 51.8 °F 48.2 °F 88% 29.97 in 10.0 mi SSE 5.8 mph - N/A   Clear
4:55 AM 51.8 °F 48.2 °F 88% 29.97 in 10.0 mi Calm Calm - N/A   Clear
5:15 AM 50.0 °F 46.4 °F 87% 29.97 in 10.0 mi South 3.5 mph - N/A   Clear
5:55 AM 51.8 °F 46.4 °F 82% 29.96 in 10.0 mi South 4.6 mph - N/A   Clear
6:15 AM 51.8 °F 48.2 °F 88% 29.96 in 10.0 mi South 4.6 mph - N/A   Clear
6:35 AM 51.8 °F 50.0 °F 94% 29.96 in 10.0 mi South 4.6 mph - N/A   Clear
6:55 AM 53.6 °F 50.0 °F 88% 29.97 in 10.0 mi South 4.6 mph - N/A   Clear
7:15 AM 53.6 °F 50.0 °F 88% 29.97 in 10.0 mi SSE 4.6 mph - N/A   Clear
7:35 AM 57.2 °F 51.8 °F 82% 29.97 in 10.0 mi SSE 4.6 mph - N/A   Clear
7:55 AM 60.8 °F 53.6 °F 77% 29.96 in 10.0 mi South 6.9 mph - N/A   Clear
8:15 AM 62.6 °F 53.6 °F 72% 29.96 in 10.0 mi South 10.4 mph 17.3 mph N/A   Clear
8:35 AM 64.4 °F 51.8 °F 64% 29.97 in 10.0 mi South 12.7 mph 17.3 mph N/A   Clear
8:55 AM 66.2 °F 51.8 °F 60% 29.96 in 10.0 mi South 16.1 mph 24.2 mph N/A   Clear
9:15 AM 68.0 °F 50.0 °F 52% 29.96 in 10.0 mi SSW 21.9 mph 32.2 mph N/A   Scattered Clouds
9:35 AM 69.8 °F 50.0 °F 49% 29.96 in 10.0 mi South 20.7 mph 32.2 mph N/A   Overcast
9:55 AM 69.8 °F 50.0 °F 49% 29.96 in 10.0 mi SSW 20.7 mph 29.9 mph N/A   Overcast
10:15 AM 69.8 °F 50.0 °F 49% 29.96 in 10.0 mi South 21.9 mph 32.2 mph N/A   Overcast
10:35 AM 69.8 °F 50.0 °F 49% 29.96 in 10.0 mi SSW 19.6 mph 32.2 mph N/A   Overcast
10:55 AM 71.6 °F 50.0 °F 46% 29.96 in 10.0 mi SSW 20.7 mph 29.9 mph N/A   Mostly Cloudy
11:15 AM 71.6 °F 50.0 °F 46% 29.96 in 10.0 mi SSW 21.9 mph 34.5 mph N/A   Overcast
11:55 AM 73.4 °F 50.0 °F 44% 29.94 in 10.0 mi SSW 18.4 mph 28.8 mph N/A   Overcast
12:15 PM 71.6 °F 50.0 °F 46% 29.93 in 10.0 mi SSW 19.6 mph 29.9 mph N/A   Overcast
12:55 PM 73.4 °F 50.0 °F 44% 29.91 in 10.0 mi SSW 19.6 mph 29.9 mph N/A   Mostly Cloudy
1:15 PM 71.6 °F 50.0 °F 46% 29.90 in 10.0 mi SSW 21.9 mph 32.2 mph N/A   Overcast
1:35 PM 73.4 °F 50.0 °F 44% 29.89 in 10.0 mi SSW 24.2 mph 33.4 mph N/A   Overcast
1:55 PM 71.6 °F 50.0 °F 46% 29.88 in 10.0 mi SSW 24.2 mph 34.5 mph N/A   Overcast
2:15 PM 75.2 °F 50.0 °F 41% 29.88 in 10.0 mi SSW 21.9 mph 32.2 mph N/A   Overcast
2:35 PM 73.4 °F 50.0 °F 44% 29.87 in 10.0 mi SSW 18.4 mph 35.7 mph N/A   Mostly Cloudy
2:55 PM 75.2 °F 50.0 °F 41% 29.87 in 10.0 mi South 21.9 mph 31.1 mph N/A   Mostly Cloudy
4:15 PM 71.6 °F 51.8 °F 50% 29.85 in 10.0 mi SSW 17.3 mph 28.8 mph N/A   Overcast
4:35 PM 71.6 °F 51.8 °F 50% 29.84 in 10.0 mi South 19.6 mph 31.1 mph N/A   Overcast
4:55 PM 71.6 °F 51.8 °F 50% 29.84 in 10.0 mi SSW 23.0 mph 31.1 mph N/A   Mostly Cloudy
5:15 PM 69.8 °F 53.6 °F 56% 29.83 in 10.0 mi South 19.6 mph 29.9 mph N/A   Overcast
5:35 PM 68.0 °F 53.6 °F 60% 29.84 in 10.0 mi SSW 13.8 mph 27.6 mph N/A   Overcast
5:55 PM 68.0 °F 53.6 °F 60% 29.84 in 10.0 mi South 11.5 mph 21.9 mph N/A   Overcast
6:15 PM 68.0 °F 55.4 °F 64% 29.84 in 10.0 mi South 10.4 mph 20.7 mph N/A   Overcast
6:35 PM 66.2 °F 55.4 °F 68% 29.84 in 10.0 mi South 12.7 mph 18.4 mph N/A   Overcast
6:55 PM 66.2 °F 55.4 °F 68% 29.84 in 10.0 mi South 11.5 mph 18.4 mph N/A   Overcast
7:15 PM 64.4 °F 55.4 °F 73% 29.83 in 10.0 mi South 10.4 mph 17.3 mph N/A   Overcast
7:35 PM 64.4 °F 55.4 °F 73% 29.85 in 10.0 mi South 8.1 mph - N/A   Overcast
7:55 PM 64.4 °F 55.4 °F 73% 29.85 in 10.0 mi South 8.1 mph 16.1 mph N/A   Overcast
8:35 PM 64.4 °F 55.4 °F 73% 29.85 in 10.0 mi South 10.4 mph - N/A   Overcast
8:55 PM 64.4 °F 55.4 °F 73% 29.85 in 10.0 mi South 9.2 mph - N/A   Overcast
9:15 PM 64.4 °F 55.4 °F 73% 29.85 in 10.0 mi South 8.1 mph - N/A   Overcast
9:35 PM 64.4 °F 55.4 °F 73% 29.86 in 10.0 mi South 8.1 mph - N/A   Overcast
9:55 PM 64.4 °F 55.4 °F 73% 29.87 in 10.0 mi South 9.2 mph - N/A   Overcast
10:15 PM 64.4 °F 55.4 °F 73% 29.87 in 10.0 mi South 9.2 mph - N/A   Overcast
10:35 PM 64.4 °F 55.4 °F 73% 29.87 in 10.0 mi South 8.1 mph - N/A   Overcast
10:55 PM 64.4 °F 55.4 °F 73% 29.87 in 10.0 mi South 10.4 mph - N/A   Overcast
11:15 PM 64.4 °F 55.4 °F 73% 29.87 in 10.0 mi South 8.1 mph - N/A   Overcast
11:35 PM 64.4 °F 55.4 °F 73% 29.87 in 10.0 mi South 9.2 mph - N/A   Overcast
11:55 PM 64.4 °F 55.4 °F 73% 29.87 in 10.0 mi South 10.4 mph 16.1 mph N/A   Overcast